User: anonymous
Location: Caltech
(34.1382°N, 118.1253°W)
Time: 14:32:21
(UTC-07:00)
Language:

Cosmos 2333 Rocket - Orbit

View from above orbital plane
View from above orbital plane
View from above satellite
View from above satellite

Ground track
Ground track

The orbit data is extracted from the following two-line orbital elements,

1 24298U 96051B   14114.06137023 -.00000046  00000-0  11754-5 0  4358
2 24298 070.8703 325.8784 0013351 097.1142 065.1653 14.12487585909421
Epoch (UTC): 24 April 2014 01:28:22
Eccentricity: 0.0013351
inclination: 70.8703°
perigee height: 841 km
apogee height: 860 km
right ascension of ascending node: 325.8784°
argument of perigee: 97.1142°
revolutions per day: 14.12487585
mean anomaly at epoch: 65.1653°
orbit number at epoch: 90942

The dashed part of the orbit path shows where the satellite is in the earth's shadow,  

DLR